Charlevoix, MI

12:37 AM EDT on August 31, 2016 (GMT -0400)
Charlevoix Municipal

Weather History for KCVX - August, 2013

Change the Weather History Date:

Tuesday, August 6, 2013

  Actual Average Record
Temperature  
Mean Temperature 68 °F -  
Max Temperature 76 °F 84 °F 89 °F (2001)
Min Temperature 59 °F 61 °F 53 °F (2014)
Cooling Degree Days 2    
Growing Degree Days 18 (Base 50)    
Moisture  
Dew Point 62 °F    
Average Humidity 82    
Maximum Humidity 98    
Minimum Humidity 67    
Precipitation  
Precipitation 0.00 in - - ()
Sea Level Pressure  
Sea Level Pressure 29.87 in    
Wind  
Wind Speed 6 mph (SSW)    
Max Wind Speed 12 mph    
Max Gust Speed -    
Visibility 10 miles    
Events      
Averages and records for this station are not official NWS values.
T = Trace of Precipitation, MM = Missing Value Source: NWS Daily Summary

Daily Weather History Graph

Daily Weather History Graph

Search for Another Location

Airport or City:

Trip Planner

Search our weather history database for the weather conditions in past years. The results will help you decide how hot, cold, wet, or windy it might be!

Date:

Astronomy

Aug. 06, 2013 Rise Set
Actual Time 6:31 AM EDT 9:01 PM EDT
Civil Twilight 5:58 AM EDT 9:34 PM EDT
Nautical Twilight 5:16 AM EDT 10:16 PM EDT
Astronomical Twilight 4:29 AM EDT 11:03 PM EDT
Moon 6:25 AM EDT (8/6) 8:31 PM EDT (8/6)
Length of Visible Light 15h 36m
Length of Day
14h 29m
Waning Crescent, 0% of the Moon is Illuminated
Aug 6
Waning Crescent
Aug 6
New
Aug 14
First Quarter
Aug 20
Full
Aug 28
Last Quarter

Hourly Weather History & Observations

Time (EDT) Temp. Dew Point Humidity Pressure Visibility Wind Dir Wind Speed Gust Speed Precip Events Conditions
12:15 AM 63.0 °F 54.5 °F 74% 29.92 in 10.0 mi SSE 4.6 mph - N/A   Overcast
12:34 AM 63.0 °F 54.3 °F 73% 29.92 in 10.0 mi South 6.9 mph - N/A   Overcast
12:55 AM 63.0 °F 54.5 °F 74% 29.92 in 10.0 mi South 8.1 mph - N/A   Overcast
1:14 AM 63.1 °F 54.5 °F 73% 29.92 in 10.0 mi South 6.9 mph - N/A   Overcast
1:35 AM 63.5 °F 54.9 °F 73% 29.92 in 10.0 mi South 5.8 mph - N/A   Overcast
1:55 AM 63.5 °F 55.4 °F 75% 29.92 in 10.0 mi South 6.9 mph - N/A   Overcast
2:14 AM 63.5 °F 55.8 °F 76% 29.91 in 10.0 mi South 6.9 mph - N/A   Overcast
2:35 AM 63.5 °F 56.3 °F 77% 29.91 in 10.0 mi South 6.9 mph - N/A   Overcast
2:55 AM 63.5 °F 56.7 °F 78% 29.91 in 10.0 mi South 5.8 mph - N/A   Overcast
3:14 AM 63.0 °F 57.0 °F 81% 29.91 in 10.0 mi SSE 4.6 mph - N/A   Overcast
3:35 AM 62.6 °F 57.6 °F 84% 29.91 in 10.0 mi SSE 4.6 mph - N/A   Overcast
3:54 AM 62.1 °F 57.7 °F 86% 29.90 in 10.0 mi SSE 3.5 mph - N/A   Overcast
4:15 AM 61.3 °F 58.1 °F 89% 29.89 in 10.0 mi SSE 4.6 mph - N/A   Mostly Cloudy
4:35 AM 61.2 °F 57.7 °F 88% 29.89 in 10.0 mi SSE 4.6 mph - N/A   Mostly Cloudy
4:54 AM 60.8 °F 57.6 °F 89% 29.88 in 10.0 mi SSE 4.6 mph - N/A   Scattered Clouds
5:15 AM 60.1 °F 57.4 °F 91% 29.88 in 10.0 mi SSE 4.6 mph - N/A   Clear
5:35 AM 59.9 °F 57.7 °F 93% 29.89 in 10.0 mi SSE 6.9 mph - N/A   Scattered Clouds
5:54 AM 60.4 °F 58.1 °F 92% 29.89 in 10.0 mi SSE 5.8 mph - N/A   Overcast
6:15 AM 60.4 °F 58.1 °F 92% 29.89 in 10.0 mi SSE 3.5 mph - N/A   Overcast
6:35 AM 60.8 °F 58.1 °F 91% 29.90 in 10.0 mi SSE 5.8 mph - N/A   Overcast
6:54 AM 60.8 °F 58.1 °F 91% 29.90 in 10.0 mi SSE 5.8 mph - N/A   Overcast
7:15 AM 61.0 °F 58.3 °F 91% 29.91 in 10.0 mi South 5.8 mph - N/A   Overcast
7:35 AM 61.2 °F 58.3 °F 90% 29.90 in 10.0 mi SSE 4.6 mph - N/A   Overcast
7:54 AM 61.9 °F 59.0 °F 90% 29.89 in 10.0 mi South 5.8 mph - N/A   Mostly Cloudy
8:15 AM 63.9 °F 59.4 °F 85% 29.88 in 10.0 mi South 6.9 mph - N/A   Clear
8:35 AM 65.3 °F 60.1 °F 83% 29.88 in 10.0 mi SSE 6.9 mph - N/A   Clear
8:54 AM 66.4 °F 60.8 °F 82% 29.88 in 10.0 mi SSE 8.1 mph - N/A   Clear
9:15 AM 67.5 °F 61.0 °F 80% 29.88 in 10.0 mi South 8.1 mph - N/A   Clear
9:34 AM 68.4 °F 61.3 °F 78% 29.89 in 10.0 mi South 8.1 mph - N/A   Clear
9:55 AM 67.5 °F 61.2 °F 80% 29.90 in 10.0 mi South 6.9 mph - N/A   Scattered Clouds
10:15 AM 68.9 °F 62.1 °F 79% 29.89 in 10.0 mi South 6.9 mph - N/A   Scattered Clouds
10:34 AM 70.2 °F 62.6 °F 77% 29.89 in 10.0 mi South 6.9 mph - N/A   Scattered Clouds
10:55 AM 71.6 °F 63.0 °F 74% 29.88 in 10.0 mi South 5.8 mph - N/A   Mostly Cloudy
11:14 AM 70.9 °F 62.8 °F 75% 29.90 in 10.0 mi South 6.9 mph - N/A   Overcast
11:35 AM 70.7 °F 63.3 °F 77% 29.90 in 10.0 mi SW 11.5 mph - N/A   Overcast
11:55 AM 71.6 °F 62.6 °F 73% 29.89 in 10.0 mi SSW 9.2 mph - N/A   Overcast
12:14 PM 72.1 °F 63.0 °F 73% 29.89 in 10.0 mi South 9.2 mph - N/A   Scattered Clouds
12:35 PM 72.5 °F 63.1 °F 72% 29.89 in 10.0 mi South 9.2 mph - N/A   Mostly Cloudy
12:54 PM 72.5 °F 62.4 °F 71% 29.89 in 10.0 mi SW 10.4 mph - N/A   Overcast
1:15 PM 73.0 °F 63.5 °F 72% 29.89 in 10.0 mi SSW 8.1 mph - N/A   Overcast
1:35 PM 73.8 °F 63.7 °F 71% 29.88 in 10.0 mi South 8.1 mph - N/A   Mostly Cloudy
1:54 PM 76.1 °F 64.6 °F 67% 29.88 in 10.0 mi SSW 8.1 mph - N/A   Overcast
2:15 PM 74.7 °F 64.2 °F 70% 29.87 in 10.0 mi SSW 5.8 mph - N/A   Mostly Cloudy
2:34 PM 74.7 °F 63.7 °F 69% 29.86 in 10.0 mi SSW 10.4 mph - N/A   Overcast
2:55 PM 73.2 °F 64.8 °F 75% 29.87 in 10.0 mi WSW 8.1 mph - N/A   Overcast
3:15 PM 74.3 °F 64.9 °F 72% 29.86 in 10.0 mi SW 5.8 mph - N/A   Overcast
3:34 PM 72.9 °F 65.1 °F 77% 29.86 in 10.0 mi West 9.2 mph - N/A   Scattered Clouds
3:55 PM 72.0 °F 65.3 °F 79% 29.86 in 10.0 mi WNW 8.1 mph - N/A   Clear
4:15 PM 71.4 °F 66.2 °F 84% 29.86 in 10.0 mi West 9.2 mph - N/A   Clear
4:34 PM 70.7 °F 66.4 °F 86% 29.85 in 10.0 mi West 6.9 mph - N/A   Scattered Clouds
4:55 PM 73.2 °F 66.9 °F 81% 29.85 in 10.0 mi WNW 8.1 mph - N/A   Scattered Clouds
5:15 PM 71.6 °F 66.4 °F 84% 29.85 in 10.0 mi West 9.2 mph - N/A   Scattered Clouds
5:34 PM 71.6 °F 66.7 °F 85% 29.85 in 10.0 mi West 5.8 mph - N/A   Mostly Cloudy
5:55 PM 73.6 °F 66.7 °F 79% 29.85 in 10.0 mi West 5.8 mph - N/A   Clear
6:15 PM 74.3 °F 66.7 °F 77% 29.85 in 10.0 mi West 5.8 mph - N/A   Clear
6:34 PM 73.9 °F 67.1 °F 79% 29.85 in 10.0 mi WNW 5.8 mph - N/A   Scattered Clouds
6:55 PM 74.3 °F 67.3 °F 79% 29.85 in 10.0 mi WNW 3.5 mph - N/A   Scattered Clouds
7:14 PM 72.3 °F 66.9 °F 83% 29.85 in 10.0 mi WNW 5.8 mph - N/A   Clear
7:35 PM 72.1 °F 66.9 °F 84% 29.85 in 10.0 mi WNW 5.8 mph - N/A   Clear
7:55 PM 70.5 °F 66.2 °F 86% 29.85 in 10.0 mi WNW 3.5 mph - N/A   Clear
8:12 PM 70.7 °F 66.9 °F 88% 29.84 in 7.0 mi Calm Calm - N/A   Clear
8:35 PM 70.5 °F 66.6 °F 87% 29.83 in 10.0 mi Calm Calm - N/A   Clear
8:54 PM 69.8 °F 66.6 °F 89% 29.83 in 7.0 mi Calm Calm - N/A   Scattered Clouds
9:15 PM 68.2 °F 67.1 °F 96% 29.83 in 7.0 mi Calm Calm - N/A   Scattered Clouds
9:35 PM 67.5 °F 66.4 °F 96% 29.83 in 7.0 mi SE 3.5 mph - N/A   Clear
9:54 PM 67.1 °F 66.4 °F 98% 29.83 in 7.0 mi Calm Calm - N/A   Clear
10:15 PM 67.6 °F 66.4 °F 96% 29.83 in 7.0 mi Calm Calm - N/A   Scattered Clouds
10:35 PM 68.2 °F 65.7 °F 92% 29.83 in 10.0 mi South 3.5 mph - N/A   Mostly Cloudy
10:55 PM 69.8 °F 65.3 °F 86% 29.82 in 10.0 mi South 4.6 mph - N/A   Mostly Cloudy
11:15 PM 70.0 °F 64.6 °F 83% 29.83 in 10.0 mi South 5.8 mph - N/A   Scattered Clouds
11:35 PM 70.0 °F 64.6 °F 83% 29.82 in 10.0 mi South 9.2 mph - N/A   Mostly Cloudy
11:55 PM 69.8 °F 64.6 °F 83% 29.82 in 10.0 mi South 4.6 mph - N/A   Mostly Cloudy